QPF
0.00 0.00 0.00 0.00 0.00 0.00 0.00 0.00 0.00 0.00 0.00 0.00 0.00 0.00 0.00 0.00 0.00 0.00 0.00 0.00 0.00 0.00 0.00 0.00 0.00 0.00 0.00 0.01 0.01 0.00 0.00 0.00 0.00 0.00 0.01 0.02 0.03 0.03 0.03 0.02 0.02 0.01 0.01
0.00 0.00 0.00 0.00 0.00 0.00 0.00 0.00 0.00 0.00 0.00 0.00 0.00 0.00 0.00 0.00 0.00 0.00 0.00 0.00 0.00 0.00 0.00 0.00 0.00 0.00 0.00 0.00 0.00 0.00 0.00 0.00 0.00 0.00 0.01 0.01 0.02 0.03 0.02 0.01 0.02 0.02 0.01
0.00 0.00 0.00 0.00 0.00 0.00 0.00 0.00 0.00 0.00 0.00 0.00 0.00 0.00 0.00 0.00 0.00 0.00 0.00 0.00 0.00 0.00 0.00 0.00 0.00 0.00 0.00 0.00 0.00 0.00 0.00 0.00 0.00 0.01 0.01 0.02 0.01 0.01 0.01 0.01 0.01 0.01 0.01
0.00 0.00 0.00 0.00 0.00 0.00 0.00 0.00 0.00 0.00 0.00 0.00 0.00 0.00 0.00 0.00 0.00 0.00 0.00 0.00 0.00 0.00 0.00 0.00 0.00 0.00 0.00 0.00 0.00 0.00 0.00 0.00 0.00 0.00 0.01 0.01 0.01 0.00 0.01 0.01 0.01 0.01 0.01
0.00 0.00 0.00 0.00 0.00 0.00 0.00 0.00 0.00 0.00 0.00 0.00 0.00 0.00 0.00 0.00 0.00 0.00 0.00 0.00 0.00 0.00 0.00 0.00 0.00 0.00 0.00 0.00 0.00 0.00 0.00 0.00 0.00 0.00 0.00 0.00 0.01 0.01 0.01 0.01 0.01 0.01 0.01
0.00 0.00 0.00 0.00 0.00 0.00 0.00 0.00 0.00 0.00 0.00 0.00 0.00 0.00 0.00 0.00 0.00 0.00 0.00 0.00 0.00 0.00 0.00 0.00 0.00 0.00 0.00 0.00 0.00 0.00 0.00 0.00 0.00 0.00 0.00 0.00 0.01 0.01 0.01 0.01 0.01 0.01 0.01
0.00 0.00 0.00 0.00 0.00 0.00 0.00 0.00 0.00 0.00 0.00 0.00 0.00 0.00 0.00 0.00 0.00 0.00 0.00 0.00 0.00 0.00 0.00 0.00 0.00 0.00 0.00 0.00 0.00 0.00 0.00 0.00 0.00 0.00 0.01 0.01 0.02 0.01 0.01 0.02 0.01 0.01 0.01
0.00 0.00 0.00 0.00 0.00 0.00 0.00 0.00 0.00 0.00 0.00 0.00 0.00 0.00 0.00 0.00 0.00 0.00 0.00 0.00 0.00 0.00 0.00 0.00 0.00 0.00 0.00 0.00 0.00 0.00 0.00 0.00 0.00 0.00 0.01 0.02 0.02 0.01 0.02 0.04 0.05 0.02 0.01
0.00 0.00 0.00 0.00 0.01 0.01 0.00 0.00 0.00 0.00 0.00 0.00 0.00 0.00 0.00 0.00 0.00 0.00 0.00 0.00 0.00 0.00 0.00 0.00 0.00 0.00 0.00 0.00 0.00 0.00 0.00 0.00 0.00 0.00 0.01 0.01 0.00 0.01 0.04 0.10 0.09 0.06 0.03
0.00 0.00 0.00 0.01 0.01 0.01 0.01 0.01 0.00 0.00 0.00 0.00 0.00 0.00 0.00 0.00 0.00 0.00 0.00 0.00 0.00 0.00 0.00 0.00 0.00 0.00 0.01 0.01 0.00 0.00 0.00 0.00 0.00 0.00 0.00 0.00 0.00 0.01 0.07 0.15 0.16 0.12 0.07
0.00 0.00 0.01 0.01 0.01 0.01 0.01 0.01 0.01 0.01 0.00 0.00 0.00 0.00 0.00 0.00 0.00 0.00 0.00 0.00 0.00 0.01 0.01 0.01 0.01 0.01 0.01 0.01 0.01 0.01 0.01 0.01 0.00 0.00 0.00 0.00 0.00 0.01 0.05 0.12 0.16 0.16 0.13
0.00 0.01 0.01 0.01 0.02 0.02 0.01 0.01 0.01 0.01 0.01 0.01 0.01 0.00 0.00 0.00 0.00 0.00 0.00 0.00 0.01 0.01 0.02 0.02 0.04 0.04 0.03 0.03 0.05 0.04 0.02 0.01 0.01 0.00 0.01 0.01 0.01 0.01 0.03 0.07 0.11 0.13 0.14
0.00 0.00 0.01 0.02 0.02 0.03 0.02 0.02 0.02 0.01 0.02 0.01 0.01 0.01 0.01 0.01 0.01 0.00 0.00 0.00 0.01 0.02 0.03 0.05 0.09 0.08 0.09 0.11 0.15 0.11 0.05 0.04 0.03 0.01 0.02 0.03 0.04 0.04 0.05 0.06 0.07 0.10 0.12
0.00 0.01 0.01 0.01 0.01 0.02 0.02 0.02 0.02 0.02 0.02 0.02 0.03 0.03 0.03 0.02 0.02 0.01 0.01 0.02 0.02 0.02 0.06 0.11 0.16 0.16 0.16 0.17 0.17 0.14 0.08 0.06 0.03 0.03 0.04 0.05 0.06 0.06 0.08 0.08 0.07 0.10 0.11
0.01 0.01 0.01 0.01 0.01 0.02 0.02 0.02 0.02 0.02 0.02 0.02 0.03 0.03 0.04 0.04 0.03 0.03 0.03 0.05 0.05 0.06 0.09 0.13 0.16 0.17 0.19 0.21 0.17 0.13 0.12 0.11 0.08 0.06 0.05 0.05 0.06 0.05 0.08 0.10 0.10 0.11 0.11
0.03 0.03 0.03 0.03 0.04 0.04 0.04 0.03 0.02 0.01 0.01 0.02 0.03 0.06 0.08 0.08 0.07 0.08 0.08 0.10 0.09 0.10 0.14 0.20 0.22 0.23 0.22 0.22 0.13 0.11 0.11 0.14 0.13 0.09 0.05 0.06 0.05 0.04 0.05 0.07 0.09 0.10 0.12
0.04 0.05 0.06 0.07 0.07 0.05 0.03 0.02 0.03 0.04 0.03 0.02 0.04 0.08 0.12 0.12 0.13 0.14 0.15 0.14 0.13 0.17 0.19 0.21 0.22 0.22 0.19 0.15 0.13 0.14 0.14 0.12 0.09 0.08 0.06 0.06 0.05 0.03 0.03 0.04 0.06 0.07 0.09
0.04 0.05 0.07 0.09 0.07 0.05 0.05 0.07 0.05 0.04 0.03 0.03 0.06 0.11 0.15 0.19 0.20 0.21 0.19 0.17 0.18 0.19 0.18 0.18 0.18 0.18 0.17 0.16 0.16 0.14 0.12 0.10 0.07 0.06 0.04 0.03 0.03 0.02 0.02 0.03 0.04 0.04 0.06
0.03 0.05 0.08 0.08 0.07 0.06 0.07 0.07 0.05 0.04 0.05 0.07 0.12 0.18 0.20 0.22 0.25 0.28 0.26 0.23 0.22 0.19 0.16 0.13 0.14 0.13 0.13 0.13 0.12 0.11 0.07 0.07 0.05 0.03 0.01 0.01 0.01 0.01 0.01 0.01 0.02 0.02 0.03
0.05 0.07 0.07 0.06 0.06 0.03 0.03 0.03 0.06 0.07 0.10 0.16 0.24 0.31 0.32 0.33 0.36 0.39 0.36 0.31 0.25 0.20 0.17 0.14 0.12 0.09 0.08 0.07 0.04 0.03 0.03 0.02 0.01 0.01 0.00 0.00 0.00 0.00 0.00 0.00 0.01 0.01 0.01
0.05 0.05 0.05 0.05 0.05 0.04 0.03 0.03 0.06 0.10 0.16 0.23 0.32 0.38 0.43 0.45 0.43 0.44 0.40 0.31 0.25 0.20 0.17 0.13 0.10 0.07 0.05 0.04 0.03 0.02 0.00 0.00 0.00 0.00 0.00 0.00 0.00 0.00 0.00 0.00 0.00 0.01 0.01
0.03 0.03 0.03 0.02 0.03 0.03 0.02 0.03 0.04 0.07 0.11 0.16 0.22 0.29 0.32 0.34 0.37 0.38 0.37 0.31 0.22 0.18 0.15 0.12 0.10 0.06 0.04 0.03 0.02 0.01 0.00 0.00 0.00 0.00 0.00 0.00 0.00 0.00 0.00 0.00 0.00 0.01 0.01
0.01 0.01 0.01 0.01 0.01 0.01 0.01 0.02 0.02 0.04 0.06 0.08 0.09 0.13 0.17 0.20 0.23 0.24 0.25 0.26 0.21 0.16 0.12 0.10 0.09 0.07 0.04 0.02 0.01 0.00 0.00 0.00 0.00 0.00 0.00 0.00 0.00 0.00 0.00 0.00 0.00 0.01 0.01
0.00 0.00 0.00 0.00 0.00 0.00 0.00 0.01 0.01 0.02 0.03 0.04 0.05 0.06 0.08 0.11 0.14 0.16 0.16 0.16 0.15 0.12 0.09 0.06 0.05 0.05 0.05 0.02 0.01 0.00 0.00 0.00 0.00 0.00 0.00 0.00 0.00 0.00 0.00 0.00 0.00 0.00 0.00
0.00 0.00 0.00 0.00 0.00 0.00 0.00 0.00 0.00 0.01 0.01 0.02 0.02 0.04 0.05 0.08 0.10 0.11 0.13 0.12 0.12 0.10 0.08 0.07 0.05 0.04 0.04 0.02 0.01 0.01 0.00 0.00 0.00 0.00 0.00 0.00 0.00 0.00 0.00 0.00 0.00 0.00 0.01
0.00 0.00 0.00 0.00 0.00 0.00 0.00 0.00 0.00 0.00 0.00 0.01 0.01 0.01 0.03 0.05 0.06 0.08 0.09 0.11 0.12 0.12 0.11 0.09 0.07 0.06 0.06 0.04 0.03 0.01 0.01 0.00 0.00 0.00 0.00 0.00 0.00 0.00 0.00 0.00 0.00 0.01 0.00
MSLP
1008.90 1009.17 1009.68 1010.37 1011.11 1011.78 1012.29 1012.59 1012.70 1012.67 1012.61 1012.60 1012.73 1013.02 1013.43 1013.93 1014.43 1014.86 1015.18 1015.37 1015.47 1015.50 1015.53 1015.60 1015.71 1015.87 1016.04 1016.21 1016.34 1016.42 1016.46 1016.47 1016.49 1016.54 1016.62 1016.73 1016.87 1017.01 1017.13 1017.24 1017.32 1017.40 1017.50
1008.79 1009.16 1009.76 1010.52 1011.30 1012.00 1012.51 1012.79 1012.88 1012.83 1012.75 1012.74 1012.86 1013.15 1013.57 1014.06 1014.54 1014.96 1015.25 1015.43 1015.52 1015.56 1015.61 1015.71 1015.86 1016.05 1016.25 1016.43 1016.56 1016.62 1016.63 1016.62 1016.62 1016.66 1016.76 1016.89 1017.07 1017.24 1017.40 1017.54 1017.64 1017.73 1017.82
1008.72 1009.17 1009.85 1010.66 1011.48 1012.19 1012.71 1013.00 1013.09 1013.06 1012.99 1012.98 1013.11 1013.38 1013.77 1014.22 1014.65 1015.01 1015.25 1015.40 1015.47 1015.53 1015.62 1015.77 1015.98 1016.22 1016.46 1016.65 1016.76 1016.80 1016.77 1016.73 1016.69 1016.72 1016.81 1016.97 1017.18 1017.40 1017.60 1017.77 1017.90 1018.00 1018.10
1008.73 1009.25 1009.98 1010.81 1011.65 1012.37 1012.90 1013.20 1013.32 1013.31 1013.28 1013.29 1013.42 1013.68 1014.02 1014.40 1014.76 1015.04 1015.22 1015.33 1015.40 1015.48 1015.62 1015.83 1016.10 1016.40 1016.67 1016.86 1016.96 1016.96 1016.88 1016.79 1016.72 1016.72 1016.81 1016.99 1017.22 1017.48 1017.72 1017.93 1018.10 1018.22 1018.33
1008.86 1009.42 1010.16 1010.99 1011.81 1012.52 1013.04 1013.36 1013.51 1013.54 1013.55 1013.60 1013.74 1013.97 1014.27 1014.59 1014.86 1015.06 1015.19 1015.26 1015.33 1015.44 1015.62 1015.90 1016.23 1016.57 1016.87 1017.06 1017.13 1017.08 1016.96 1016.81 1016.70 1016.67 1016.76 1016.95 1017.21 1017.50 1017.78 1018.03 1018.23 1018.38 1018.51
1009.08 1009.65 1010.37 1011.17 1011.95 1012.62 1013.12 1013.44 1013.61 1013.68 1013.73 1013.82 1013.98 1014.21 1014.48 1014.74 1014.94 1015.08 1015.16 1015.21 1015.28 1015.42 1015.65 1015.98 1016.36 1016.73 1017.03 1017.21 1017.25 1017.16 1016.98 1016.78 1016.63 1016.59 1016.67 1016.86 1017.15 1017.47 1017.79 1018.07 1018.30 1018.47 1018.62
1009.35 1009.91 1010.59 1011.33 1012.04 1012.65 1013.10 1013.41 1013.58 1013.69 1013.78 1013.90 1014.09 1014.32 1014.57 1014.80 1014.96 1015.06 1015.11 1015.16 1015.24 1015.41 1015.68 1016.05 1016.45 1016.84 1017.13 1017.28 1017.28 1017.14 1016.92 1016.68 1016.51 1016.45 1016.53 1016.74 1017.04 1017.39 1017.73 1018.04 1018.29 1018.49 1018.66
1009.60 1010.13 1010.76 1011.43 1012.05 1012.59 1012.99 1013.25 1013.42 1013.54 1013.66 1013.82 1014.03 1014.27 1014.52 1014.74 1014.89 1014.98 1015.02 1015.07 1015.18 1015.37 1015.67 1016.05 1016.46 1016.83 1017.10 1017.21 1017.17 1017.00 1016.74 1016.49 1016.30 1016.24 1016.33 1016.56 1016.88 1017.25 1017.61 1017.94 1018.21 1018.43 1018.61
1009.79 1010.28 1010.86 1011.45 1011.99 1012.44 1012.77 1013.00 1013.14 1013.26 1013.39 1013.57 1013.80 1014.06 1014.32 1014.53 1014.69 1014.78 1014.84 1014.91 1015.04 1015.25 1015.56 1015.93 1016.32 1016.67 1016.90 1016.98 1016.90 1016.70 1016.43 1016.17 1016.00 1015.96 1016.07 1016.32 1016.66 1017.05 1017.43 1017.77 1018.06 1018.28 1018.48
1009.88 1010.35 1010.87 1011.40 1011.86 1012.24 1012.51 1012.68 1012.80 1012.91 1013.04 1013.22 1013.46 1013.72 1013.98 1014.21 1014.37 1014.48 1014.56 1014.65 1014.79 1015.01 1015.31 1015.66 1016.02 1016.33 1016.52 1016.56 1016.46 1016.25 1015.99 1015.75 1015.60 1015.59 1015.73 1016.01 1016.37 1016.78 1017.18 1017.54 1017.83 1018.07 1018.28
1009.91 1010.36 1010.84 1011.30 1011.71 1012.02 1012.23 1012.36 1012.45 1012.54 1012.66 1012.84 1013.07 1013.32 1013.57 1013.79 1013.96 1014.08 1014.17 1014.27 1014.42 1014.64 1014.92 1015.24 1015.56 1015.82 1015.98 1016.00 1015.89 1015.69 1015.45 1015.24 1015.12 1015.15 1015.32 1015.62 1016.02 1016.44 1016.86 1017.23 1017.54 1017.79 1018.00
1009.94 1010.35 1010.80 1011.21 1011.56 1011.83 1012.00 1012.10 1012.17 1012.23 1012.34 1012.49 1012.69 1012.92 1013.15 1013.34 1013.49 1013.61 1013.70 1013.80 1013.94 1014.14 1014.40 1014.69 1014.98 1015.21 1015.34 1015.35 1015.24 1015.06 1014.85 1014.68 1014.60 1014.66 1014.85 1015.17 1015.58 1016.02 1016.45 1016.84 1017.17 1017.43 1017.67
1010.03 1010.41 1010.81 1011.18 1011.48 1011.71 1011.85 1011.93 1011.98 1012.04 1012.12 1012.24 1012.40 1012.58 1012.76 1012.91 1013.02 1013.11 1013.18 1013.27 1013.40 1013.58 1013.81 1014.08 1014.33 1014.54 1014.66 1014.68 1014.59 1014.44 1014.26 1014.12 1014.07 1014.14 1014.35 1014.67 1015.07 1015.52 1015.96 1016.36 1016.71 1017.00 1017.25
1010.26 1010.59 1010.92 1011.23 1011.49 1011.68 1011.80 1011.88 1011.92 1011.96 1012.02 1012.11 1012.21 1012.33 1012.44 1012.53 1012.59 1012.63 1012.67 1012.73 1012.83 1012.99 1013.21 1013.45 1013.69 1013.90 1014.02 1014.05 1013.99 1013.87 1013.73 1013.61 1013.57 1013.63 1013.82 1014.11 1014.50 1014.93 1015.36 1015.78 1016.15 1016.47 1016.75
1010.66 1010.90 1011.15 1011.38 1011.58 1011.74 1011.85 1011.92 1011.97 1012.00 1012.04 1012.08 1012.13 1012.17 1012.20 1012.21 1012.20 1012.19 1012.18 1012.21 1012.30 1012.44 1012.64 1012.88 1013.12 1013.33 1013.47 1013.53 1013.50 1013.41 1013.28 1013.17 1013.11 1013.14 1013.28 1013.53 1013.86 1014.26 1014.68 1015.09 1015.48 1015.83 1016.15
1011.19 1011.32 1011.46 1011.61 1011.75 1011.86 1011.96 1012.03 1012.08 1012.11 1012.12 1012.12 1012.10 1012.07 1012.01 1011.94 1011.86 1011.79 1011.75 1011.76 1011.83 1011.97 1012.16 1012.40 1012.65 1012.87 1013.03 1013.11 1013.11 1013.04 1012.93 1012.80 1012.71 1012.69 1012.76 1012.93 1013.19 1013.53 1013.91 1014.32 1014.72 1015.10 1015.45
1011.80 1011.80 1011.82 1011.87 1011.93 1012.01 1012.09 1012.15 1012.20 1012.22 1012.21 1012.17 1012.08 1011.97 1011.84 1011.70 1011.56 1011.45 1011.38 1011.38 1011.44 1011.58 1011.79 1012.03 1012.29 1012.52 1012.70 1012.80 1012.82 1012.76 1012.64 1012.49 1012.36 1012.27 1012.26 1012.34 1012.51 1012.78 1013.11 1013.49 1013.88 1014.28 1014.66
1012.37 1012.25 1012.16 1012.11 1012.11 1012.14 1012.20 1012.26 1012.30 1012.31 1012.27 1012.17 1012.03 1011.85 1011.65 1011.45 1011.27 1011.14 1011.07 1011.07 1011.15 1011.30 1011.51 1011.76 1012.02 1012.26 1012.44 1012.55 1012.57 1012.51 1012.38 1012.21 1012.03 1011.88 1011.79 1011.78 1011.87 1012.05 1012.32 1012.65 1013.03 1013.43 1013.83
1012.84 1012.61 1012.42 1012.30 1012.24 1012.24 1012.28 1012.33 1012.36 1012.34 1012.26 1012.11 1011.91 1011.68 1011.43 1011.19 1011.00 1010.87 1010.81 1010.84 1010.94 1011.12 1011.34 1011.58 1011.83 1012.05 1012.22 1012.32 1012.34 1012.27 1012.13 1011.94 1011.72 1011.52 1011.37 1011.28 1011.29 1011.40 1011.60 1011.88 1012.22 1012.60 1013.00
1013.13 1012.84 1012.59 1012.42 1012.33 1012.31 1012.33 1012.36 1012.36 1012.31 1012.19 1011.99 1011.74 1011.46 1011.18 1010.93 1010.75 1010.64 1010.63 1010.70 1010.84 1011.03 1011.25 1011.48 1011.70 1011.89 1012.02 1012.08 1012.07 1011.99 1011.84 1011.64 1011.42 1011.19 1011.00 1010.87 1010.82 1010.86 1011.00 1011.22 1011.51 1011.86 1012.23
1013.25 1012.94 1012.67 1012.49 1012.39 1012.35 1012.36 1012.37 1012.35 1012.26 1012.09 1011.84 1011.54 1011.23 1010.93 1010.69 1010.54 1010.48 1010.52 1010.64 1010.82 1011.03 1011.25 1011.45 1011.62 1011.74 1011.81 1011.82 1011.78 1011.67 1011.52 1011.33 1011.11 1010.89 1010.70 1010.55 1010.47 1010.47 1010.55 1010.71 1010.95 1011.24 1011.58
1013.22 1012.93 1012.68 1012.51 1012.42 1012.40 1012.40 1012.39 1012.33 1012.20 1011.98 1011.69 1011.35 1011.02 1010.72 1010.51 1010.40 1010.40 1010.50 1010.68 1010.89 1011.11 1011.30 1011.46 1011.56 1011.61 1011.60 1011.54 1011.45 1011.32 1011.17 1010.99 1010.81 1010.63 1010.46 1010.33 1010.24 1010.22 1010.26 1010.37 1010.55 1010.78 1011.06
1013.10 1012.86 1012.66 1012.53 1012.47 1012.45 1012.45 1012.42 1012.34 1012.16 1011.90 1011.57 1011.21 1010.86 1010.58 1010.40 1010.34 1010.40 1010.56 1010.78 1011.02 1011.24 1011.40 1011.50 1011.52 1011.48 1011.38 1011.26 1011.11 1010.96 1010.81 1010.66 1010.52 1010.39 1010.27 1010.17 1010.10 1010.08 1010.10 1010.18 1010.30 1010.48 1010.70
1012.96 1012.78 1012.63 1012.55 1012.51 1012.51 1012.51 1012.47 1012.36 1012.15 1011.85 1011.49 1011.11 1010.77 1010.51 1010.36 1010.35 1010.46 1010.66 1010.91 1011.17 1011.37 1011.50 1011.54 1011.48 1011.35 1011.18 1010.98 1010.79 1010.61 1010.46 1010.35 1010.25 1010.17 1010.11 1010.05 1010.02 1010.01 1010.03 1010.08 1010.17 1010.30 1010.48
1012.84 1012.71 1012.61 1012.56 1012.55 1012.56 1012.55 1012.50 1012.37 1012.14 1011.82 1011.44 1011.06 1010.72 1010.47 1010.35 1010.37 1010.51 1010.74 1011.01 1011.26 1011.45 1011.54 1011.53 1011.41 1011.22 1010.98 1010.73 1010.50 1010.31 1010.17 1010.07 1010.01 1009.97 1009.95 1009.94 1009.94 1009.94 1009.97 1010.02 1010.09 1010.21 1010.35
1012.75 1012.65 1012.58 1012.55 1012.54 1012.55 1012.54 1012.48 1012.33 1012.09 1011.76 1011.38 1011.00 1010.66 1010.43 1010.32 1010.35 1010.50 1010.73 1011.00 1011.24 1011.41 1011.47 1011.42 1011.27 1011.05 1010.78 1010.50 1010.26 1010.06 1009.93 1009.84 1009.80 1009.79 1009.79 1009.80 1009.82 1009.84 1009.88 1009.94 1010.03 1010.15 1010.30
Thickness
5852 5846 5830 5825 5820 5816 5814 5812 5810 5807 5804 5801 5797 5794 5791 5788 5785 5782 5779 5776 5774 5771 5769 5768 5766 5764 5762 5761 5759 5757 5756 5754 5753 5752 5751 5749 5748 5747 5746 5746 5748 5748 5744
5853 5843 5828 5823 5818 5815 5812 5809 5807 5805 5802 5799 5795 5792 5789 5786 5783 5780 5778 5775 5773 5771 5769 5767 5765 5763 5761 5759 5758 5756 5754 5753 5752 5751 5750 5749 5747 5746 5745 5745 5747 5747 5743
5849 5839 5827 5821 5817 5813 5810 5807 5805 5803 5800 5797 5793 5790 5787 5784 5782 5779 5776 5773 5771 5769 5767 5765 5763 5762 5759 5758 5756 5755 5753 5752 5751 5750 5750 5753 5748 5745 5744 5744 5744 5743 5741
5845 5836 5827 5818 5814 5811 5808 5805 5802 5799 5797 5794 5791 5788 5785 5782 5780 5777 5775 5772 5770 5768 5766 5764 5762 5760 5758 5756 5754 5753 5752 5751 5750 5751 5754 5755 5752 5745 5743 5742 5741 5741 5740
5840 5833 5824 5816 5811 5808 5805 5802 5799 5796 5793 5790 5788 5785 5783 5780 5778 5776 5773 5771 5769 5766 5764 5762 5760 5758 5757 5755 5753 5752 5751 5750 5749 5751 5756 5754 5752 5744 5742 5741 5740 5739 5739
5835 5829 5820 5812 5808 5804 5801 5798 5795 5792 5790 5787 5785 5782 5780 5778 5776 5774 5771 5769 5767 5765 5763 5761 5759 5757 5754 5753 5752 5750 5750 5749 5749 5757 5754 5754 5752 5744 5742 5740 5739 5738 5738
5832 5826 5817 5809 5804 5800 5797 5794 5792 5789 5786 5784 5782 5779 5777 5776 5773 5771 5769 5767 5765 5763 5761 5759 5757 5755 5753 5751 5750 5749 5748 5748 5752 5757 5754 5753 5751 5744 5741 5740 5738 5737 5736
5829 5825 5814 5805 5801 5797 5794 5791 5788 5786 5783 5781 5778 5776 5774 5772 5771 5769 5767 5765 5763 5761 5759 5757 5755 5753 5751 5750 5749 5748 5747 5746 5751 5756 5754 5753 5749 5744 5741 5739 5738 5737 5735
5828 5822 5812 5805 5798 5794 5790 5788 5785 5782 5780 5777 5774 5772 5770 5769 5767 5765 5763 5762 5760 5758 5756 5755 5753 5751 5749 5748 5747 5746 5745 5745 5749 5756 5756 5753 5749 5744 5741 5739 5738 5736 5735
5823 5818 5811 5806 5799 5794 5789 5784 5781 5778 5775 5773 5771 5769 5767 5766 5764 5762 5760 5758 5756 5755 5753 5752 5751 5749 5748 5747 5746 5745 5744 5743 5748 5756 5756 5753 5748 5743 5741 5740 5738 5737 5735
5816 5814 5810 5805 5798 5794 5790 5785 5779 5775 5772 5769 5768 5766 5764 5765 5765 5762 5759 5757 5753 5751 5750 5749 5748 5747 5746 5746 5745 5743 5743 5747 5753 5756 5756 5752 5746 5742 5740 5739 5738 5737 5735
5808 5808 5806 5802 5797 5793 5790 5785 5780 5777 5774 5769 5769 5766 5764 5764 5763 5762 5760 5754 5750 5748 5747 5747 5746 5745 5744 5749 5748 5744 5746 5749 5753 5756 5754 5749 5744 5741 5739 5738 5737 5736 5735
5805 5804 5803 5799 5793 5790 5786 5783 5780 5777 5774 5769 5766 5763 5761 5760 5759 5757 5756 5753 5748 5746 5746 5747 5745 5746 5748 5749 5749 5747 5748 5752 5754 5755 5754 5748 5743 5740 5738 5737 5736 5736 5735
5802 5799 5798 5794 5788 5784 5781 5779 5775 5773 5770 5767 5763 5758 5757 5754 5753 5753 5751 5751 5749 5747 5746 5746 5745 5747 5747 5747 5746 5746 5748 5748 5751 5752 5751 5746 5742 5740 5738 5737 5736 5736 5735
5795 5792 5790 5787 5782 5777 5773 5770 5769 5766 5764 5761 5756 5754 5750 5749 5748 5748 5746 5744 5744 5744 5744 5741 5742 5744 5744 5744 5743 5745 5745 5746 5747 5748 5749 5745 5742 5739 5738 5737 5736 5736 5735
5787 5784 5781 5778 5774 5770 5765 5762 5760 5757 5755 5754 5752 5749 5744 5742 5742 5741 5740 5739 5739 5739 5739 5738 5739 5738 5739 5740 5741 5743 5743 5744 5744 5744 5745 5746 5743 5741 5739 5738 5737 5736 5736
5776 5774 5771 5768 5765 5760 5757 5753 5752 5751 5749 5748 5746 5743 5738 5736 5735 5734 5733 5733 5734 5733 5732 5731 5732 5733 5735 5737 5738 5740 5740 5740 5742 5742 5744 5745 5745 5742 5741 5739 5738 5737 5736
5766 5763 5761 5759 5755 5751 5747 5744 5744 5743 5741 5741 5740 5738 5735 5732 5730 5728 5727 5728 5728 5726 5726 5727 5729 5730 5731 5733 5734 5736 5738 5738 5739 5740 5742 5743 5743 5745 5744 5741 5739 5738 5737
5755 5752 5750 5748 5745 5742 5740 5738 5737 5735 5735 5735 5733 5731 5728 5726 5725 5724 5723 5721 5721 5721 5721 5724 5727 5726 5727 5729 5731 5732 5734 5735 5737 5740 5742 5743 5743 5743 5744 5744 5740 5739 5738
5745 5742 5740 5738 5735 5733 5733 5732 5730 5729 5730 5728 5726 5723 5721 5720 5720 5719 5717 5715 5715 5714 5715 5717 5718 5720 5722 5725 5728 5732 5732 5735 5736 5738 5739 5741 5742 5743 5744 5745 5743 5742 5740
5734 5732 5730 5726 5724 5722 5721 5720 5719 5720 5720 5719 5717 5715 5714 5714 5713 5712 5711 5711 5710 5709 5710 5712 5713 5715 5716 5720 5720 5722 5728 5732 5734 5734 5736 5739 5741 5742 5741 5742 5742 5744 5745
5724 5721 5719 5716 5714 5712 5711 5709 5708 5708 5709 5709 5708 5706 5705 5705 5705 5706 5704 5703 5704 5703 5704 5705 5706 5709 5712 5715 5714 5715 5718 5724 5726 5732 5733 5733 5737 5740 5741 5741 5741 5740 5742
5715 5711 5709 5705 5703 5701 5700 5701 5700 5699 5699 5699 5698 5697 5696 5696 5697 5696 5696 5696 5696 5696 5697 5699 5700 5700 5703 5709 5712 5711 5710 5714 5724 5727 5728 5730 5731 5734 5737 5740 5739 5740 5740
5707 5705 5700 5696 5693 5691 5689 5689 5686 5685 5685 5685 5685 5686 5685 5685 5685 5686 5686 5687 5689 5690 5691 5693 5696 5697 5696 5700 5704 5705 5709 5714 5712 5717 5721 5726 5726 5727 5732 5736 5738 5739 5738
5701 5697 5693 5688 5684 5681 5678 5675 5673 5674 5674 5675 5674 5673 5673 5674 5674 5675 5676 5677 5679 5681 5683 5685 5687 5689 5692 5694 5699 5701 5702 5703 5705 5707 5713 5718 5722 5726 5729 5731 5734 5735 5736
5694 5690 5686 5680 5674 5671 5668 5665 5661 5659 5658 5658 5659 5660 5661 5663 5663 5664 5665 5666 5668 5671 5673 5676 5678 5681 5684 5687 5691 5696 5698 5699 5701 5704 5706 5709 5714 5721 5725 5728 5730 5731 5731